User: anonymous   Login
Location: Unspecified
(47.1700°N, 0.0000°E)
Time: 07:48:59
(UTC+00:00)
Language:

KAITUO 1B - Orbit

View from above orbital plane
View from above orbital plane
View from above satellite
View from above satellite

Ground track
Ground track

The orbit data is extracted from the following two-line orbital elements,

1 40912U 15049P   19200.97572603  .00000630  00000-0  32713-4 0  9995
2 40912  97.4489 207.9213 0016510  65.3720 348.7481 15.19640665212068
Epoch (UTC): 19 July 2019 23:25:02
Eccentricity: 0.0016510
inclination: 97.4489°
perigee height: 495 km
apogee height: 518 km
right ascension of ascending node: 207.9213°
argument of perigee: 65.3720°
revolutions per day: 15.19640665
mean anomaly at epoch: 348.7481°
orbit number at epoch: 21206

The dashed part of the orbit path shows where the satellite is in the earth's shadow,  

DLR